Location: Ffm
(50.0000°N, 8.5000°E)
Time: 08:23:10
(UTC+01:00)

Envisat - Pass Details

Date: 27 October 2020
Orbit: 764 x 766 km, 98.1° (Epoch: 03 December)

Event Time Altitude Azimuth Distance (km) Brightness Sun altitude
Rises 06:17:18 0° 16° (NNE) 3,244 6.3 -8.7°
Reaches altitude 10° 06:19:40 10° 20° (NNE) 2,313 5.6 -8.3°
Maximum altitude 06:24:42 61° 101° (E) 871 3.7 -7.5°
Drops below altitude 10° 06:29:43 10° 182° (S) 2,295 5.6 -6.7°
Sets 06:32:02 0° 185° (S) 3,216 6.3 -6.4°
